CW6739 Weather Reports


Display with metric or nautical units.
time (UTC)temp
F
wind
direction
speed
MPH
gust
MPH
rain 1hr
in
rain 24hr
in
rain mn
in
humidity
%
barometer
mb
20260510225009 52 131 4.0 11.0 0.00 0.00 0.00 63 997.8
20260510224505 53 149 3.0 9.0 0.00 0.00 0.00 63 997.8
20260510224002 52 157 8.0 14.0 0.00 0.00 0.00 63 997.7
20260510223500 52 146 9.0 12.0 0.00 0.00 0.00 64 997.7
20260510222956 52 164 2.0 15.0 0.00 0.00 0.00 64 997.7
20260510222455 52 162 10.0 13.0 0.00 0.00 0.00 64 997.7
20260510221950 51 138 7.0 19.0 0.00 0.00 0.00 65 997.5
20260510221446 53 153 3.0 11.0 0.00 0.00 0.00 64 997.5
20260510220942 52 142 2.0 14.0 0.00 0.00 0.00 64 997.4
20260510220438 52 343 4.0 20.0 0.00 0.00 0.00 65 997.4
20260510215935 52 167 9.0 14.0 0.00 0.00 0.00 65 997.1
20260510215432 52 106 3.0 13.0 0.00 0.00 0.00 65 997.2
20260510214930 52 211 6.0 20.0 0.00 0.00 0.00 65 997.2
20260510214427 53 27 3.0 18.0 0.00 0.00 0.00 65 997.0
20260510213924 52 171 3.0 22.0 0.00 0.00 0.00 65 996.8
20260510213420 52 171 3.0 14.0 0.00 0.00 0.00 66 996.7
20260510212916 51 146 10.0 23.0 0.00 0.00 0.00 65 996.7
20260510212414 52 41 2.0 22.0 0.00 0.00 0.00 66 996.8
20260510211910 52 150 2.0 13.0 0.00 0.00 0.00 66 996.8
20260510211408 51 138 3.0 21.0 0.00 0.00 0.00 66 996.9
20260510210907 51 143 7.0 15.0 0.00 0.00 0.00 66 996.8
20260510210403 51 149 7.0 18.0 0.00 0.00 0.00 67 996.8
20260510205901 51 139 4.0 9.0 0.00 0.00 0.00 69 996.6
20260510205357 51 132 13.0 13.0 0.00 0.00 0.00 68 996.5
20260510204854 51 152 2.0 13.0 0.00 0.00 0.00 69 996.6
20260510204350 51 139 4.0 17.0 0.00 0.00 0.00 68 996.3
20260510203847 51 120 3.0 15.0 0.00 0.00 0.00 68 996.4
20260510203345 51 45 3.0 9.0 0.00 0.00 0.00 69 996.4
20260510202839 51 155 10.0 18.0 0.00 0.00 0.00 68 996.2
20260510202335 51 346 7.0 13.0 0.00 0.00 0.00 67 996.4
20260510201832 51 98 4.0 21.0 0.00 0.00 0.00 68 996.0
20260510201329 51 264 1.0 10.0 0.00 0.00 0.00 68 996.3
20260510200826 51 157 1.0 13.0 0.00 0.00 0.00 67 996.1
20260510200324 51 159 3.0 9.0 0.00 0.00 0.00 67 995.9
20260510195819 51 189 3.0 11.0 0.00 0.00 0.00 68 995.8
20260510195316 51 228 4.0 10.0 0.00 0.00 0.00 68 996.1
20260510194811 51 154 0.0 13.0 0.00 0.00 0.00 69 996.1
20260510194307 51 162 14.0 14.0 0.00 0.00 0.00 68 996.0
20260510193803 51 79 2.0 17.0 0.00 0.00 0.00 68 995.9
20260510193258 51 107 0.0 8.0 0.00 0.00 0.00 68 996.1
20260510192754 51 144 5.0 12.0 0.00 0.00 0.00 67 996.2
20260510192250 51 101 3.0 13.0 0.00 0.00 0.00 67 995.7
20260510191746 51 0 0.0 6.0 0.00 0.00 0.00 69 995.8
20260510191242 51 140 5.0 6.0 0.00 0.00 0.00 69 995.8
20260510190740 50 121 4.0 9.0 0.00 0.00 0.00 70 996.0
20260510190237 50 294 3.0 15.0 0.00 0.00 0.00 69 996.0
20260510185733 51 84 3.0 9.0 0.00 0.00 0.00 69 996.0
20260510185232 50 126 7.0 10.0 0.00 0.00 0.00 69 995.7
20260510184728 51 119 4.0 8.0 0.00 0.00 0.00 71 995.8
20260510184225 51 156 7.0 8.0 0.00 0.00 0.00 70 995.7
20260510183720 52 188 2.0 6.0 0.00 0.00 0.00 69 995.5
20260510183215 51 125 3.0 11.0 0.00 0.00 0.00 69 995.8
20260510182711 51 207 5.0 8.0 0.00 0.00 0.00 71 995.5
20260510182207 51 122 0.0 9.0 0.00 0.00 0.00 72 995.5
20260510181704 51 29 0.0 5.0 0.00 0.00 0.00 71 995.5
20260510181201 51 147 4.0 4.0 0.00 0.00 0.00 71 995.4
20260510180657 50 123 3.0 8.0 0.00 0.00 0.00 72 995.6
20260510180155 49 105 0.0 11.0 0.00 0.00 0.00 76 995.4
20260510175650 48 278 0.0 2.0 0.00 0.00 0.00 84 995.4
20260510175147 47 81 0.0 3.0 0.00 0.00 0.00 86 995.7
20260510174644 46 90 0.0 3.0 0.00 0.00 0.00 87 995.8
20260510174142 46 3 0.0 4.0 0.00 0.00 0.00 88 995.5
20260510173637 46 90 0.0 3.0 0.00 0.00 0.00 89 995.6
20260510173134 46 283 0.0 2.0 0.00 0.00 0.00 89 995.5
20260510172629 45 262 0.0 4.0 0.00 0.00 0.00 90 995.4
20260510172126 45 243 0.0 2.0 0.00 0.00 0.00 91 995.4
20260510171622 44 356 2.0 3.0 0.00 0.00 0.00 92 995.4
20260510171120 44 173 2.0 3.0 0.00 0.00 0.00 92 995.4
20260510170616 44 225 0.0 2.0 0.00 0.00 0.00 92 995.2
20260510170113 44 206 0.0 2.0 0.00 0.00 0.00 93 995.3
20260510165608 44 0 0.0 2.0 0.00 0.00 0.00 92 995.3
20260510165104 45 307 2.0 3.0 0.00 0.00 0.00 91 995.3
20260510164602 44 165 0.0 1.0 0.00 0.00 0.00 92 995.1
20260510164058 44 4 2.0 3.0 0.00 0.00 0.00 93 995.4
20260510163554 43 340 0.0 2.0 0.00 0.00 0.00 93 995.3
20260510163050 43 180 0.0 1.0 0.00 0.00 0.00 94 995.3
20260510162545 43 206 0.0 1.0 0.00 0.00 0.00 94 995.3
20260510162042 43 175 2.0 3.0 0.00 0.00 0.00 93 995.3
20260510161538 43 0 0.0 2.0 0.00 0.00 0.00 93 995.3
20260510161035 43 90 0.0 2.0 0.00 0.00 0.00 93 995.2
20260510160532 43 203 0.0 3.0 0.00 0.00 0.00 93 995.1
20260510160031 43 168 1.0 1.0 0.00 0.00 0.00 92 995.2
20260510155528 44 161 2.0 2.0 0.00 0.00 0.00 92 995.0
20260510155025 44 184 2.0 2.0 0.00 0.00 0.00 90 995.2
20260510154520 44 154 0.0 2.0 0.00 0.00 0.00 90 994.9
20260510154021 43 18 0.0 1.0 0.00 0.00 0.00 91 995.1
20260510153516 43 139 4.0 4.0 0.00 0.00 0.00 92 995.0
20260510153013 42 165 0.0 0.0 0.00 0.00 0.00 95 995.0
20260510152510 42 180 1.0 3.0 0.00 0.00 0.00 95 995.0
20260510152006 42 90 0.0 0.0 0.00 0.00 0.00 95 994.8
20260510151503 42 40 1.0 1.0 0.00 0.00 0.00 96 994.7
20260510151001 41 29 0.0 1.0 0.00 0.00 0.00 96 994.9
20260510150455 41 151 0.0 0.0 0.00 0.00 0.00 96 994.9
20260510145952 41 57 0.0 1.0 0.00 0.00 0.00 96 994.9
20260510145448 41 165 0.0 0.0 0.00 0.00 0.00 96 994.8
20260510144945 41 120 1.0 1.0 0.00 0.00 0.00 96 994.7
20260510144442 41 15 0.0 0.0 0.00 0.00 0.00 95 994.7
20260510143937 41 15 0.0 0.0 0.00 0.00 0.00 95 994.6
20260510143433 41 82 1.0 2.0 0.00 0.00 0.00 95 994.6
20260510142931 41 18 0.0 0.0 0.00 0.00 0.00 95 994.8
20260510142427 41 18 0.0 0.0 0.00 0.00 0.00 95 994.8
20260510141923 41 18 0.0 1.0 0.00 0.00 0.00 95 994.8
20260510141420 41 7 0.0 0.0 0.00 0.00 0.00 95 994.9
20260510140918 41 7 0.0 0.0 0.00 0.00 0.00 95 994.5
20260510140414 41 140 0.0 1.0 0.00 0.00 0.00 95 994.8
20260510135913 41 157 0.0 0.0 0.00 0.00 0.00 95 994.8
20260510135409 41 157 0.0 1.0 0.00 0.00 0.00 96 994.5
20260510134907 41 141 0.0 2.0 0.00 0.00 0.00 95 994.6
20260510134403 41 83 0.0 0.0 0.00 0.00 0.00 94 994.9
20260510133859 41 106 0.0 0.0 0.00 0.00 0.00 94 994.7
20260510133356 41 106 0.0 0.0 0.00 0.00 0.00 94 994.7
20260510132851 41 105 1.0 2.0 0.00 0.00 0.00 95 994.6
20260510132349 42 162 2.0 3.0 0.00 0.00 0.00 94 994.7
20260510131846 42 194 2.0 4.0 0.00 0.00 0.00 92 994.6
20260510131344 42 199 2.0 2.0 0.00 0.00 0.00 91 994.7
20260510130840 42 63 1.0 2.0 0.00 0.00 0.00 91 994.4
20260510130337 42 25 3.0 4.0 0.00 0.00 0.00 91 994.6
20260510125834 42 23 1.0 2.0 0.00 0.00 0.00 91 994.4
20260510125330 42 29 0.0 1.0 0.00 0.00 0.00 91 994.6
20260510124827 42 151 0.0 5.0 0.00 0.00 0.00 91 994.6
20260510124324 42 45 0.0 2.0 0.00 0.00 0.00 91 994.6
20260510123819 42 29 0.0 0.0 0.00 0.00 0.00 92 994.8
20260510123315 42 197 3.0 3.0 0.00 0.00 0.00 91 994.9
20260510122812 42 106 0.0 2.0 0.00 0.00 0.00 91 994.8
20260510122308 41 187 0.0 0.0 0.00 0.00 0.00 92 994.7
20260510121804 41 145 0.0 2.0 0.00 0.00 0.00 92 994.7
20260510121302 41 23 0.0 3.0 0.00 0.00 0.00 92 994.5
20260510120759 41 32 1.0 3.0 0.00 0.00 0.00 92 994.5
20260510120255 41 108 3.0 5.0 0.00 0.00 0.00 92 994.5
20260510115751 41 75 0.0 4.0 0.00 0.00 0.00 92 994.7
20260510115250 41 282 2.0 3.0 0.00 0.00 0.00 92 994.7
20260510114749 41 117 1.0 3.0 0.00 0.00 0.00 93 994.8
20260510114248 41 69 0.0 2.0 0.00 0.00 0.00 94 994.7
20260510113742 41 33 2.0 2.0 0.00 0.00 0.00 94 994.6
20260510113240 41 35 0.0 2.0 0.00 0.00 0.00 95 994.7
20260510112736 41 63 0.0 2.0 0.00 0.00 0.00 95 994.6
20260510112233 41 66 0.0 2.0 0.00 0.00 0.00 96 994.4
20260510111728 41 66 0.0 3.0 0.00 0.00 0.00 95 994.8
20260510111226 41 18 1.0 1.0 0.00 0.00 0.00 95 994.6
20260510110725 40 15 0.0 2.0 0.00 0.00 0.00 95 994.6
20260510110224 41 35 1.0 1.0 0.00 0.00 0.00 95 994.6
20260510105723 41 26 0.0 1.0 0.00 0.00 0.00 94 994.6
20260510105218 41 90 0.0 1.0 0.00 0.00 0.00 95 994.5
20260510104715 41 145 0.0 0.0 0.00 0.00 0.00 95 994.1
20260510104212 41 145 0.0 2.0 0.00 0.00 0.00 94 994.2
20260510103708 41 98 0.0 1.0 0.00 0.00 0.00 94 994.2
20260510103205 41 66 0.0 0.0 0.00 0.00 0.00 94 994.2
20260510102700 41 66 0.0 0.0 0.00 0.00 0.00 93 994.1
20260510102156 41 66 1.0 1.0 0.00 0.00 0.00 93 994.3
20260510101654 42 45 2.0 2.0 0.00 0.00 0.00 92 994.3
20260510101152 42 23 0.0 0.0 0.00 0.00 0.00 92 994.3
20260510100653 42 35 0.0 0.0 0.00 0.00 0.00 92 994.1
20260510100151 42 35 0.0 0.0 0.00 0.00 0.00 92 994.3
20260510095646 42 35 0.0 0.0 0.00 0.00 0.00 93 994.3
20260510095141 42 29 0.0 1.0 0.00 0.00 0.00 92 994.1
20260510094640 42 7 0.0 0.0 0.00 0.00 0.00 92 994.3
20260510094136 42 0 1.0 1.0 0.00 0.00 0.00 93 994.0
20260510093632 42 180 0.0 1.0 0.00 0.00 0.00 93 993.9
20260510093129 42 29 0.0 0.0 0.00 0.00 0.00 93 994.1
20260510092626 43 98 0.0 0.0 0.00 0.00 0.00 93 994.3
20260510092121 43 98 0.0 0.0 0.00 0.00 0.00 93 994.2
20260510091618 42 98 0.0 0.0 0.00 0.00 0.00 93 994.2
20260510091113 43 98 0.0 0.0 0.00 0.00 0.00 93 994.2
20260510090611 43 180 0.0 0.0 0.00 0.00 0.00 93 994.2
20260510090106 43 173 0.0 3.0 0.00 0.00 0.00 93 994.2
20260510085602 43 96 1.0 2.0 0.00 0.00 0.00 92 994.2
20260510085058 43 190 3.0 3.0 0.00 0.00 0.00 92 994.3
20260510084554 43 173 0.0 1.0 0.00 0.00 0.00 89 994.1
20260510084051 43 166 0.0 2.0 0.00 0.00 0.00 88 994.1
20260510083548 43 60 1.0 2.0 0.00 0.00 0.00 87 994.3
20260510083044 43 66 0.0 1.0 0.00 0.00 0.00 87 994.2
20260510082541 43 14 0.0 1.0 0.00 0.00 0.00 86 994.2
20260510082036 44 0 0.0 1.0 0.00 0.00 0.00 87 994.3
20260510081532 43 12 0.0 1.0 0.00 0.00 0.00 86 994.2
20260510081027 43 337 0.0 4.0 0.00 0.00 0.00 87 994.2
20260510080526 43 164 3.0 3.0 0.00 0.00 0.00 87 994.0
20260510080024 43 270 0.0 2.0 0.00 0.07 0.07 87 994.0
20260510075521 43 120 0.0 1.0 0.00 0.07 0.07 86 994.0
20260510075018 44 35 1.0 2.0 0.00 0.07 0.07 86 994.0
20260510074516 44 32 0.0 3.0 0.00 0.07 0.07 85 994.0
20260510074011 44 15 0.0 3.0 0.00 0.07 0.07 84 994.0
20260510073507 44 144 2.0 5.0 0.00 0.07 0.07 84 993.8
20260510073004 44 204 2.0 4.0 0.00 0.07 0.07 83 994.0
20260510072500 45 72 2.0 6.0 0.00 0.07 0.07 83 994.2
20260510071956 45 183 2.0 5.0 0.00 0.07 0.07 82 994.1
20260510071452 45 105 0.0 4.0 0.00 0.07 0.07 82 993.9
20260510070950 45 98 2.0 6.0 0.00 0.07 0.07 82 994.1
20260510070448 45 169 2.0 4.0 0.00 0.07 0.07 82 993.8
20260510065943 45 172 3.0 5.0 0.00 0.07 0.07 82 993.8
20260510065440 45 115 0.0 3.0 0.00 0.07 0.07 82 993.7
20260510064936 45 5 0.0 5.0 0.00 0.07 0.07 82 993.9
20260510064434 45 41 2.0 5.0 0.00 0.07 0.07 82 993.7
20260510063930 45 126 1.0 5.0 0.00 0.07 0.07 84 993.6
20260510063426 44 90 0.0 9.0 0.00 0.07 0.07 85 993.8
20260510062924 44 248 3.0 9.0 0.00 0.07 0.07 86 993.7
20260510062419 44 48 2.0 9.0 0.00 0.07 0.07 86 993.4
20260510061915 44 356 2.0 13.0 0.00 0.07 0.07 85 993.6
20260510061412 45 137 4.0 7.0 0.00 0.07 0.07 84 993.4
20260510060908 45 188 4.0 7.0 0.00 0.07 0.07 83 993.0
20260510060405 45 134 4.0 10.0 0.00 0.07 0.07 82 993.0
20260510055901 45 145 10.0 10.0 0.00 0.07 0.07 83 993.2
20260510055356 45 185 3.0 7.0 0.00 0.07 0.07 85 993.1
20260510054854 44 299 0.0 6.0 0.00 0.07 0.07 85 993.2
20260510054350 44 164 2.0 7.0 0.00 0.07 0.07 86 993.2
20260510053845 44 119 4.0 9.0 0.00 0.07 0.07 86 993.2
20260510053341 45 18 0.0 4.0 0.00 0.07 0.07 85 993.2
20260510052838 45 158 4.0 6.0 0.00 0.07 0.07 85 993.1
20260510052333 45 65 2.0 4.0 0.00 0.07 0.07 85 993.0
20260510051830 45 58 3.0 5.0 0.00 0.07 0.07 84 993.0
20260510051327 45 33 4.0 8.0 0.00 0.07 0.07 83 992.9
20260510050824 45 135 2.0 9.0 0.00 0.07 0.07 83 993.2
20260510050320 45 97 5.0 14.0 0.00 0.07 0.07 84 993.1
20260510045817 45 62 5.0 10.0 0.00 0.07 0.07 84 992.9
20260510045314 45 111 3.0 7.0 0.00 0.07 0.07 86 993.0
20260510044811 45 163 3.0 9.0 0.00 0.07 0.07 86 993.0
20260510044308 45 240 0.0 13.0 0.00 0.07 0.07 85 992.9
20260510043804 45 105 3.0 12.0 0.00 0.07 0.07 84 993.2
20260510043300 45 158 3.0 7.0 0.00 0.07 0.07 84 993.1
20260510042757 46 86 3.0 13.0 0.00 0.07 0.07 84 993.1
20260510042253 46 154 3.0 10.0 0.00 0.07 0.07 83 992.9
20260510041750 46 150 3.0 13.0 0.00 0.07 0.07 83 992.9
20260510041247 46 105 3.0 8.0 0.00 0.07 0.07 82 992.9
20260510040745 46 154 4.0 9.0 0.00 0.07 0.07 83 992.8
20260510040236 46 113 0.0 11.0 0.00 0.07 0.07 83 992.9
20260510035731 47 135 3.0 9.0 0.00 0.07 0.07 82 992.7
20260510035227 47 105 4.0 7.0 0.00 0.07 0.07 82 992.9
20260510034723 47 14 4.0 13.0 0.00 0.07 0.07 82 993.1
20260510034221 47 135 9.0 9.0 0.00 0.07 0.07 81 993.0
20260510033717 48 105 0.0 8.0 0.00 0.07 0.07 79 992.9
20260510033215 48 331 1.0 6.0 0.00 0.07 0.07 78 993.0
20260510032711 48 152 6.0 13.0 0.00 0.07 0.07 77 992.8
20260510032207 48 138 9.0 10.0 0.00 0.07 0.07 77 992.9
20260510031701 48 86 3.0 11.0 0.00 0.07 0.07 77 993.0
20260510031158 49 119 5.0 11.0 0.00 0.07 0.07 76 993.1
20260510030652 49 294 3.0 9.0 0.00 0.07 0.07 76 992.9
20260510030150 49 63 4.0 11.0 0.00 0.07 0.07 75 992.8
20260510025647 50 110 0.0 11.0 0.00 0.07 0.07 74 993.0
20260510025144 50 114 4.0 9.0 0.00 0.07 0.07 74 992.9
20260510024642 51 60 0.0 5.0 0.00 0.07 0.07 74 992.7
20260510024138 50 172 5.0 16.0 0.00 0.07 0.07 75 992.8
20260510023634 50 117 2.0 13.0 0.00 0.07 0.07 75 993.1
20260510023131 50 90 4.0 10.0 0.00 0.07 0.07 75 992.8
20260510022631 50 51 3.0 10.0 0.00 0.07 0.07 76 992.7
20260510022126 50 166 1.0 13.0 0.00 0.07 0.07 76 993.1
20260510021622 49 75 2.0 11.0 0.00 0.07 0.07 77 993.0
20260510021120 49 30 4.0 10.0 0.00 0.07 0.07 77 993.0
20260510020614 49 56 5.0 5.0 0.00 0.07 0.07 78 993.1
20260510020110 48 346 2.0 5.0 0.00 0.07 0.07 78 993.0
20260510015606 48 56 3.0 10.0 0.00 0.07 0.07 79 993.0
20260510015103 49 50 3.0 8.0 0.00 0.07 0.07 76 993.3
20260510014558 49 204 2.0 4.0 0.00 0.07 0.07 76 993.2
20260510014056 48 119 3.0 13.0 0.00 0.07 0.07 76 993.2
20260510013555 49 27 5.0 9.0 0.00 0.07 0.07 76 993.2
20260510013052 49 153 5.0 7.0 0.00 0.07 0.07 75 993.1
20260510012545 49 105 1.0 7.0 0.00 0.07 0.07 76 993.2
20260510012042 49 75 3.0 7.0 0.00 0.07 0.07 75 993.1
20260510011542 49 56 2.0 8.0 0.00 0.07 0.07 76 993.1
20260510011038 50 131 4.0 9.0 0.00 0.07 0.07 76 993.3
20260510010535 50 47 3.0 9.0 0.00 0.07 0.07 77 993.3
20260510010032 50 35 1.0 6.0 0.00 0.07 0.07 78 993.2
20260510005527 50 135 3.0 6.0 0.00 0.07 0.07 78 993.2
20260510005025 49 95 3.0 9.0 0.00 0.07 0.07 79 993.3
20260510004523 48 67 3.0 9.0 0.00 0.07 0.07 80 993.2
20260510004021 48 107 4.0 12.0 0.00 0.07 0.07 79 993.3
20260510003517 48 135 4.0 9.0 0.00 0.07 0.07 81 993.1
20260510003013 47 164 4.0 15.0 0.00 0.07 0.07 81 993.1
20260510002508 47 144 16.0 17.0 0.00 0.07 0.07 80 993.3
20260510002005 48 134 8.0 14.0 0.00 0.07 0.07 78 993.1
20260510001503 48 103 4.0 7.0 0.00 0.07 0.07 78 993.3
20260510001001 48 146 11.0 17.0 0.00 0.07 0.07 76 993.0
20260510000456 49 11 5.0 13.0 0.00 0.07 0.07 75 993.0
20260509235952 50 166 5.0 17.0 0.00 0.07 0.07 75 992.9
20260509235449 50 55 3.0 7.0 0.00 0.07 0.07 74 993.1
20260509234945 50 20 3.0 11.0 0.00 0.07 0.07 75 993.0
20260509234443 50 126 1.0 11.0 0.00 0.07 0.07 74 992.9
20260509233941 51 206 3.0 12.0 0.00 0.07 0.07 73 992.9
20260509233438 50 27 6.0 10.0 0.00 0.07 0.07 74 993.1
20260509232934 50 172 4.0 13.0 0.00 0.07 0.07 75 992.9
20260509232432 50 98 3.0 9.0 0.00 0.07 0.07 79 993.2
20260509231927 50 211 4.0 12.0 0.00 0.07 0.07 76 993.3
20260509231424 50 152 0.0 15.0 0.00 0.07 0.07 75 993.1
20260509230922 51 165 4.0 13.0 0.00 0.07 0.07 74 993.1
20260509230419 52 137 5.0 16.0 0.00 0.07 0.07 76 993.2
20260509225915 51 310 3.0 8.0 0.00 0.07 0.07 75 993.4
20260509225411 52 54 3.0 10.0 0.00 0.07 0.07 76 993.0